Time,TemperatureF,DewpointF,PressureIn,WindDirection,WindDirectionDegrees,WindSpeedMPH,WindSpeedGustMPH,Humidity,HourlyPrecipIn,Conditions,Clouds,dailyrainin,SoftwareType,DateUTC
2013-04-20 00:00:00,65.0,50.8,29.98,North,0,0.0,0.0,60,0.00,,,0.00,WUHU216HW,2013-04-20 07:00:00,
2013-04-20 00:05:00,64.8,50.1,29.98,North,0,0.0,0.0,59,0.00,,,0.00,WUHU216HW,2013-04-20 07:05:00,
2013-04-20 00:10:00,64.8,50.1,29.98,North,0,0.0,0.0,59,0.00,,,0.00,WUHU216HW,2013-04-20 07:10:00,
2013-04-20 00:15:00,65.2,49.5,29.98,North,0,0.0,0.0,57,0.00,,,0.00,WUHU216HW,2013-04-20 07:15:00,
2013-04-20 00:20:00,65.3,49.1,29.98,North,0,0.0,0.0,56,0.00,,,0.00,WUHU216HW,2013-04-20 07:20:00,
2013-04-20 00:25:00,65.3,48.7,29.98,North,0,0.0,0.0,55,0.00,,,0.00,WUHU216HW,2013-04-20 07:25:00,
2013-04-20 00:30:00,65.5,47.9,29.98,North,0,0.0,0.0,53,0.00,,,0.00,WUHU216HW,2013-04-20 07:30:00,
2013-04-20 00:35:00,65.9,47.8,29.98,North,0,0.0,0.0,52,0.00,,,0.00,WUHU216HW,2013-04-20 07:35:00,
2013-04-20 00:40:00,65.9,47.3,29.99,North,0,0.0,0.0,51,0.00,,,0.00,WUHU216HW,2013-04-20 07:40:00,
2013-04-20 00:45:00,66.1,47.0,29.99,North,0,0.0,0.0,50,0.00,,,0.00,WUHU216HW,2013-04-20 07:45:00,
2013-04-20 00:50:00,66.2,46.5,29.99,North,0,0.0,0.0,49,0.00,,,0.00,WUHU216HW,2013-04-20 07:50:00,
2013-04-20 00:55:00,66.4,46.2,30.00,North,0,0.0,0.0,48,0.00,,,0.00,WUHU216HW,2013-04-20 07:55:00,
2013-04-20 01:01:00,66.4,46.2,29.99,North,0,0.0,0.0,48,0.00,,,0.00,WUHU216HW,2013-04-20 08:01:00,
2013-04-20 01:06:00,66.4,45.5,30.00,North,0,0.0,0.0,47,0.00,,,0.00,WUHU216HW,2013-04-20 08:06:00,
2013-04-20 01:11:00,66.4,45.5,30.00,North,0,0.0,0.0,47,0.00,,,0.00,WUHU216HW,2013-04-20 08:11:00,
2013-04-20 01:16:00,66.2,45.4,30.00,North,0,0.0,0.0,47,0.00,,,0.00,WUHU216HW,2013-04-20 08:16:00,
2013-04-20 01:21:00,66.1,45.2,30.00,North,0,0.0,0.0,47,0.00,,,0.00,WUHU216HW,2013-04-20 08:21:00,
2013-04-20 01:26:00,65.9,45.0,30.00,North,0,0.0,0.0,47,0.00,,,0.00,WUHU216HW,2013-04-20 08:26:00,
2013-04-20 01:31:00,65.7,44.8,30.00,North,0,0.0,0.0,47,0.00,,,0.00,WUHU216HW,2013-04-20 08:31:00,
2013-04-20 01:36:00,65.5,44.6,30.00,North,0,0.0,0.0,47,0.00,,,0.00,WUHU216HW,2013-04-20 08:36:00,
2013-04-20 01:41:00,65.5,44.6,30.00,North,0,0.0,0.0,47,0.00,,,0.00,WUHU216HW,2013-04-20 08:41:00,
2013-04-20 01:46:00,65.3,44.5,30.00,North,0,0.0,0.0,47,0.00,,,0.00,WUHU216HW,2013-04-20 08:46:00,
2013-04-20 01:51:00,65.2,44.4,30.00,North,0,0.0,0.0,47,0.00,,,0.00,WUHU216HW,2013-04-20 08:51:00,
2013-04-20 01:56:00,65.0,44.2,30.00,North,0,0.0,0.0,47,0.00,,,0.00,WUHU216HW,2013-04-20 08:56:00,
2013-04-20 02:01:00,64.8,44.0,29.99,North,0,0.0,0.0,47,0.00,,,0.00,WUHU216HW,2013-04-20 09:01:00,
2013-04-20 02:06:00,64.4,44.2,29.99,North,0,0.0,0.0,48,0.00,,,0.00,WUHU216HW,2013-04-20 09:06:00,
2013-04-20 02:12:00,64.4,44.2,29.99,North,0,0.0,0.0,48,0.00,,,0.00,WUHU216HW,2013-04-20 09:12:00,
2013-04-20 02:17:00,64.1,43.9,29.99,North,0,0.0,0.0,48,0.00,,,0.00,WUHU216HW,2013-04-20 09:17:00,
2013-04-20 02:22:00,64.1,43.9,29.99,North,0,0.0,0.0,48,0.00,,,0.00,WUHU216HW,2013-04-20 09:22:00,
2013-04-20 02:27:00,63.7,43.6,30.00,North,0,0.0,0.0,48,0.00,,,0.00,WUHU216HW,2013-04-20 09:27:00,
2013-04-20 02:32:00,63.7,43.6,29.99,North,0,0.0,0.0,48,0.00,,,0.00,WUHU216HW,2013-04-20 09:32:00,
2013-04-20 02:37:00,63.4,43.8,29.99,North,0,0.0,0.0,49,0.00,,,0.00,WUHU216HW,2013-04-20 09:37:00,
2013-04-20 02:42:00,63.2,43.7,29.99,North,0,0.0,0.0,49,0.00,,,0.00,WUHU216HW,2013-04-20 09:42:00,
2013-04-20 02:47:00,63.0,43.5,29.99,North,0,0.0,0.0,49,0.00,,,0.00,WUHU216HW,2013-04-20 09:47:00,
2013-04-20 02:52:00,62.6,43.2,29.99,North,0,0.0,0.0,49,0.00,,,0.00,WUHU216HW,2013-04-20 09:52:00,
2013-04-20 02:57:00,62.6,43.2,29.99,North,0,0.0,0.0,49,0.00,,,0.00,WUHU216HW,2013-04-20 09:57:00,
2013-04-20 03:02:00,62.6,43.2,29.99,North,0,0.0,0.0,49,0.00,,,0.00,WUHU216HW,2013-04-20 10:02:00,
2013-04-20 03:07:00,62.6,43.2,29.99,North,0,0.0,0.0,49,0.00,,,0.00,WUHU216HW,2013-04-20 10:07:00,
2013-04-20 03:12:00,62.5,43.0,29.99,North,0,0.0,0.0,49,0.00,,,0.00,WUHU216HW,2013-04-20 10:12:00,
2013-04-20 03:17:00,62.3,42.8,29.99,North,0,0.0,0.0,49,0.00,,,0.00,WUHU216HW,2013-04-20 10:17:00,
2013-04-20 03:23:00,62.3,42.8,29.99,North,0,0.0,0.0,49,0.00,,,0.00,WUHU216HW,2013-04-20 10:23:00,
2013-04-20 03:28:00,62.5,42.4,29.99,North,0,0.0,0.0,48,0.00,,,0.00,WUHU216HW,2013-04-20 10:28:00,
2013-04-20 03:33:00,62.5,42.4,29.99,North,0,0.0,0.0,48,0.00,,,0.00,WUHU216HW,2013-04-20 10:33:00,
2013-04-20 03:38:00,62.3,42.3,29.99,North,0,0.0,0.0,48,0.00,,,0.00,WUHU216HW,2013-04-20 10:38:00,
2013-04-20 03:43:00,62.5,42.4,29.99,North,0,0.0,0.0,48,0.00,,,0.00,WUHU216HW,2013-04-20 10:43:00,
2013-04-20 03:48:00,62.3,42.3,29.99,North,0,0.0,0.0,48,0.00,,,0.00,WUHU216HW,2013-04-20 10:48:00,
2013-04-20 03:53:00,62.3,41.7,29.99,North,0,0.0,0.0,47,0.00,,,0.00,WUHU216HW,2013-04-20 10:53:00,
2013-04-20 03:58:00,62.1,41.5,29.99,North,0,0.0,0.0,47,0.00,,,0.00,WUHU216HW,2013-04-20 10:58:00,
2013-04-20 04:03:00,61.9,41.4,30.00,North,0,0.0,0.0,47,0.00,,,0.00,WUHU216HW,2013-04-20 11:03:00,
2013-04-20 04:08:00,61.9,41.4,30.00,North,0,0.0,0.0,47,0.00,,,0.00,WUHU216HW,2013-04-20 11:08:00,
2013-04-20 04:13:00,61.9,41.4,30.00,North,0,0.0,0.0,47,0.00,,,0.00,WUHU216HW,2013-04-20 11:13:00,
2013-04-20 04:18:00,61.9,41.4,30.00,North,0,0.0,0.0,47,0.00,,,0.00,WUHU216HW,2013-04-20 11:18:00,
2013-04-20 04:23:00,61.7,41.2,30.00,North,0,0.0,0.0,47,0.00,,,0.00,WUHU216HW,2013-04-20 11:23:00,
2013-04-20 04:28:00,61.6,41.0,30.00,North,0,0.0,0.0,47,0.00,,,0.00,WUHU216HW,2013-04-20 11:28:00,
2013-04-20 04:34:00,61.4,41.5,30.00,North,0,0.0,0.0,48,0.00,,,0.00,WUHU216HW,2013-04-20 11:34:00,
2013-04-20 04:39:00,61.4,41.5,30.00,North,0,0.0,0.0,48,0.00,,,0.00,WUHU216HW,2013-04-20 11:39:00,
2013-04-20 04:44:00,61.2,41.3,30.00,North,0,0.0,0.0,48,0.00,,,0.00,WUHU216HW,2013-04-20 11:44:00,
2013-04-20 04:49:00,61.2,41.3,30.00,North,0,0.0,0.0,48,0.00,,,0.00,WUHU216HW,2013-04-20 11:49:00,
2013-04-20 04:54:00,61.2,41.3,30.00,North,0,0.0,0.0,48,0.00,,,0.00,WUHU216HW,2013-04-20 11:54:00,
2013-04-20 04:59:00,61.2,40.7,30.00,North,0,0.0,0.0,47,0.00,,,0.00,WUHU216HW,2013-04-20 11:59:00,
2013-04-20 05:04:00,61.0,41.1,30.01,North,0,0.0,0.0,48,0.00,,,0.00,WUHU216HW,2013-04-20 12:04:00,
2013-04-20 05:09:00,60.8,40.4,30.00,North,0,0.0,0.0,47,0.00,,,0.00,WUHU216HW,2013-04-20 12:09:00,
2013-04-20 05:14:00,60.8,41.0,30.00,North,0,0.0,0.0,48,0.00,,,0.00,WUHU216HW,2013-04-20 12:14:00,
2013-04-20 05:19:00,60.7,40.8,30.00,North,0,0.0,0.0,48,0.00,,,0.00,WUHU216HW,2013-04-20 12:19:00,
2013-04-20 05:24:00,60.5,40.7,30.00,North,0,0.0,0.0,48,0.00,,,0.00,WUHU216HW,2013-04-20 12:24:00,
2013-04-20 05:29:00,60.3,40.5,30.00,North,0,0.0,0.0,48,0.00,,,0.00,WUHU216HW,2013-04-20 12:29:00,
2013-04-20 05:34:00,60.3,40.5,30.01,North,0,0.0,0.0,48,0.00,,,0.00,WUHU216HW,2013-04-20 12:34:00,
2013-04-20 05:39:00,60.1,40.3,30.01,North,0,0.0,0.0,48,0.00,,,0.00,WUHU216HW,2013-04-20 12:39:00,
2013-04-20 05:45:00,60.1,40.3,30.00,North,0,0.0,0.0,48,0.00,,,0.00,WUHU216HW,2013-04-20 12:45:00,
2013-04-20 05:50:00,60.1,40.3,30.00,North,0,0.0,0.0,48,0.00,,,0.00,WUHU216HW,2013-04-20 12:50:00,
2013-04-20 05:55:00,60.1,40.3,30.00,North,0,0.0,0.0,48,0.00,,,0.00,WUHU216HW,2013-04-20 12:55:00,
2013-04-20 06:00:00,60.1,40.3,30.01,North,0,0.0,0.0,48,0.00,,,0.00,WUHU216HW,2013-04-20 13:00:00,
2013-04-20 06:05:00,60.1,40.3,30.01,North,0,0.0,0.0,48,0.00,,,0.00,WUHU216HW,2013-04-20 13:05:00,
2013-04-20 06:10:00,60.1,40.3,30.00,North,0,0.0,0.0,48,0.00,,,0.00,WUHU216HW,2013-04-20 13:10:00,
2013-04-20 06:15:00,60.1,40.3,30.00,North,0,0.0,0.0,48,0.00,,,0.00,WUHU216HW,2013-04-20 13:15:00,
2013-04-20 06:20:00,59.9,40.1,30.01,North,0,0.0,0.0,48,0.00,,,0.00,WUHU216HW,2013-04-20 13:20:00,
2013-04-20 06:25:00,59.9,40.1,30.01,North,0,0.0,0.0,48,0.00,,,0.00,WUHU216HW,2013-04-20 13:25:00,
2013-04-20 06:30:00,59.8,40.0,30.00,North,0,0.0,0.0,48,0.00,,,0.00,WUHU216HW,2013-04-20 13:30:00,
2013-04-20 06:35:00,59.8,40.0,30.01,North,0,0.0,0.0,48,0.00,,,0.00,WUHU216HW,2013-04-20 13:35:00,
2013-04-20 06:40:00,59.8,40.0,30.01,North,0,0.0,0.0,48,0.00,,,0.00,WUHU216HW,2013-04-20 13:40:00,
2013-04-20 06:45:00,59.8,40.0,30.01,North,0,0.0,0.0,48,0.00,,,0.00,WUHU216HW,2013-04-20 13:45:00,
2013-04-20 06:50:00,59.6,39.9,30.00,North,0,0.0,0.0,48,0.00,,,0.00,WUHU216HW,2013-04-20 13:50:00,
2013-04-20 06:56:00,59.6,40.4,30.01,North,0,0.0,0.0,49,0.00,,,0.00,WUHU216HW,2013-04-20 13:56:00,
2013-04-20 07:01:00,59.8,40.6,30.01,North,0,0.0,0.0,49,0.00,,,0.00,WUHU216HW,2013-04-20 14:01:00,
2013-04-20 07:06:00,59.8,40.6,30.01,North,0,0.0,0.0,49,0.00,,,0.00,WUHU216HW,2013-04-20 14:06:00,
2013-04-20 07:11:00,59.9,40.8,30.01,North,0,0.0,0.0,49,0.00,,,0.00,WUHU216HW,2013-04-20 14:11:00,
2013-04-20 07:16:00,60.1,40.9,30.02,North,0,0.0,0.0,49,0.00,,,0.00,WUHU216HW,2013-04-20 14:16:00,
2013-04-20 07:21:00,60.1,40.9,30.01,North,0,0.0,0.0,49,0.00,,,0.00,WUHU216HW,2013-04-20 14:21:00,
2013-04-20 07:26:00,60.3,41.0,30.01,North,0,0.0,0.0,49,0.00,,,0.00,WUHU216HW,2013-04-20 14:26:00,
2013-04-20 07:31:00,60.5,41.2,30.02,North,0,0.0,0.0,49,0.00,,,0.00,WUHU216HW,2013-04-20 14:31:00,
2013-04-20 07:36:00,60.7,41.4,30.02,North,0,0.0,0.0,49,0.00,,,0.00,WUHU216HW,2013-04-20 14:36:00,
2013-04-20 07:41:00,60.8,41.6,30.02,North,0,0.0,0.0,49,0.00,,,0.00,WUHU216HW,2013-04-20 14:41:00,
2013-04-20 07:46:00,61.0,41.7,30.02,North,0,0.0,0.0,49,0.00,,,0.00,WUHU216HW,2013-04-20 14:46:00,
2013-04-20 07:51:00,61.2,41.9,30.02,North,0,0.0,0.0,49,0.00,,,0.00,WUHU216HW,2013-04-20 14:51:00,
2013-04-20 07:56:00,61.6,42.2,30.02,North,0,0.0,0.0,49,0.00,,,0.00,WUHU216HW,2013-04-20 14:56:00,
2013-04-20 08:01:00,61.7,42.4,30.02,North,0,0.0,0.0,49,0.00,,,0.00,WUHU216HW,2013-04-20 15:01:00,
2013-04-20 08:07:00,62.1,42.1,30.02,North,0,0.0,0.0,48,0.00,,,0.00,WUHU216HW,2013-04-20 15:07:00,
2013-04-20 08:12:00,62.5,43.0,30.02,North,0,0.0,0.0,49,0.00,,,0.00,WUHU216HW,2013-04-20 15:12:00,
2013-04-20 08:17:00,62.8,42.8,30.02,North,0,0.0,0.0,48,0.00,,,0.00,WUHU216HW,2013-04-20 15:17:00,
2013-04-20 08:22:00,63.0,42.9,30.02,North,0,0.0,0.0,48,0.00,,,0.00,WUHU216HW,2013-04-20 15:22:00,
2013-04-20 08:27:00,63.2,42.5,30.02,North,0,0.0,0.0,47,0.00,,,0.00,WUHU216HW,2013-04-20 15:27:00,
2013-04-20 08:32:00,63.5,42.2,30.02,North,0,0.0,0.0,46,0.00,,,0.00,WUHU216HW,2013-04-20 15:32:00,
2013-04-20 08:37:00,63.7,42.4,30.02,North,0,0.0,0.0,46,0.00,,,0.00,WUHU216HW,2013-04-20 15:37:00,
2013-04-20 08:42:00,64.1,42.8,30.01,North,0,0.0,0.0,46,0.00,,,0.00,WUHU216HW,2013-04-20 15:42:00,
2013-04-20 08:47:00,64.4,43.0,30.02,North,0,0.0,0.0,46,0.00,,,0.00,WUHU216HW,2013-04-20 15:47:00,
2013-04-20 08:52:00,64.8,42.9,30.02,North,0,0.0,0.0,45,0.00,,,0.00,WUHU216HW,2013-04-20 15:52:00,
2013-04-20 08:57:00,65.0,43.0,30.02,North,0,0.0,0.0,45,0.00,,,0.00,WUHU216HW,2013-04-20 15:57:00,
2013-04-20 09:02:00,65.3,43.4,30.02,North,0,0.0,0.0,45,0.00,,,0.00,WUHU216HW,2013-04-20 16:02:00,
2013-04-20 09:07:00,65.7,43.7,30.02,North,0,0.0,0.0,45,0.00,,,0.00,WUHU216HW,2013-04-20 16:07:00,
2013-04-20 09:12:00,66.1,43.5,30.02,North,0,0.0,0.0,44,0.00,,,0.00,WUHU216HW,2013-04-20 16:12:00,
2013-04-20 09:17:00,66.6,43.9,30.02,North,0,0.0,0.0,44,0.00,,,0.00,WUHU216HW,2013-04-20 16:17:00,
2013-04-20 09:23:00,67.1,43.8,30.01,North,0,0.0,0.0,43,0.00,,,0.00,WUHU216HW,2013-04-20 16:23:00,
2013-04-20 09:28:00,67.3,44.0,30.01,North,0,0.0,0.0,43,0.00,,,0.00,WUHU216HW,2013-04-20 16:28:00,
2013-04-20 09:33:00,67.5,43.6,30.01,North,0,0.0,0.0,42,0.00,,,0.00,WUHU216HW,2013-04-20 16:33:00,
2013-04-20 09:38:00,67.7,43.8,30.01,North,0,0.0,0.0,42,0.00,,,0.00,WUHU216HW,2013-04-20 16:38:00,
2013-04-20 09:43:00,68.0,44.7,30.01,North,0,0.0,0.0,43,0.00,,,0.00,WUHU216HW,2013-04-20 16:43:00,
2013-04-20 09:48:00,68.6,45.1,30.01,North,0,0.0,0.0,43,0.00,,,0.00,WUHU216HW,2013-04-20 16:48:00,
2013-04-20 09:53:00,68.9,44.8,30.01,North,0,0.0,0.0,42,0.00,,,0.00,WUHU216HW,2013-04-20 16:53:00,
2013-04-20 09:58:00,69.1,45.0,30.01,North,0,0.0,0.0,42,0.00,,,0.00,WUHU216HW,2013-04-20 16:58:00,
2013-04-20 10:03:00,69.1,45.0,30.01,North,0,0.0,0.0,42,0.00,,,0.00,WUHU216HW,2013-04-20 17:03:00,
2013-04-20 10:08:00,69.5,45.4,30.01,North,0,0.0,0.0,42,0.00,,,0.00,WUHU216HW,2013-04-20 17:08:00,
2013-04-20 10:13:00,69.7,44.9,30.01,North,0,0.0,0.0,41,0.00,,,0.00,WUHU216HW,2013-04-20 17:13:00,
2013-04-20 10:18:00,69.8,45.1,30.00,North,0,0.0,0.0,41,0.00,,,0.00,WUHU216HW,2013-04-20 17:18:00,
2013-04-20 10:23:00,70.2,45.4,30.00,North,0,0.0,0.0,41,0.00,,,0.00,WUHU216HW,2013-04-20 17:23:00,
2013-04-20 10:28:00,70.6,45.1,30.00,North,0,0.0,0.0,40,0.00,,,0.00,WUHU216HW,2013-04-20 17:28:00,
2013-04-20 10:34:00,70.7,45.9,30.00,North,0,0.0,0.0,41,0.00,,,0.00,WUHU216HW,2013-04-20 17:34:00,
2013-04-20 10:39:00,70.9,45.5,30.00,North,0,0.0,0.0,40,0.00,,,0.00,WUHU216HW,2013-04-20 17:39:00,
2013-04-20 10:44:00,71.3,45.7,30.00,North,0,0.0,0.0,40,0.00,,,0.00,WUHU216HW,2013-04-20 17:44:00,
2013-04-20 10:49:00,71.6,46.1,30.00,North,0,0.0,0.0,40,0.00,,,0.00,WUHU216HW,2013-04-20 17:49:00,
2013-04-20 10:54:00,71.8,45.6,30.00,North,0,0.0,0.0,39,0.00,,,0.00,WUHU216HW,2013-04-20 17:54:00,
2013-04-20 10:59:00,72.2,45.8,30.00,North,0,0.0,0.0,39,0.00,,,0.00,WUHU216HW,2013-04-20 17:59:00,
2013-04-20 11:04:00,72.4,46.0,30.00,North,0,0.0,0.0,39,0.00,,,0.00,WUHU216HW,2013-04-20 18:04:00,
2013-04-20 11:09:00,72.7,46.3,30.00,North,0,0.0,0.0,39,0.00,,,0.00,WUHU216HW,2013-04-20 18:09:00,
2013-04-20 11:14:00,73.1,45.9,29.99,North,0,0.0,0.0,38,0.00,,,0.00,WUHU216HW,2013-04-20 18:14:00,
2013-04-20 11:19:00,73.4,46.2,29.99,North,0,0.0,0.0,38,0.00,,,0.00,WUHU216HW,2013-04-20 18:19:00,
2013-04-20 11:24:00,73.6,45.6,29.99,North,0,0.0,0.0,37,0.00,,,0.00,WUHU216HW,2013-04-20 18:24:00,
2013-04-20 11:29:00,74.0,45.9,29.99,North,0,0.0,0.0,37,0.00,,,0.00,WUHU216HW,2013-04-20 18:29:00,
2013-04-20 11:34:00,74.3,45.5,29.99,North,0,0.0,0.0,36,0.00,,,0.00,WUHU216HW,2013-04-20 18:34:00,
2013-04-20 11:39:00,74.5,44.9,29.98,North,0,0.0,0.0,35,0.00,,,0.00,WUHU216HW,2013-04-20 18:39:00,
2013-04-20 11:45:00,74.7,45.1,29.98,North,0,0.0,0.0,35,0.00,,,0.00,WUHU216HW,2013-04-20 18:45:00,
2013-04-20 11:50:00,74.9,45.2,29.98,North,0,0.0,0.0,35,0.00,,,0.00,WUHU216HW,2013-04-20 18:50:00,
2013-04-20 11:55:00,75.2,44.8,29.98,North,0,0.0,0.0,34,0.00,,,0.00,WUHU216HW,2013-04-20 18:55:00,
2013-04-20 12:00:00,75.4,45.7,29.98,North,0,0.0,0.0,35,0.00,,,0.00,WUHU216HW,2013-04-20 19:00:00,
2013-04-20 12:05:00,76.0,45.5,29.98,North,0,0.0,0.0,34,0.00,,,0.00,WUHU216HW,2013-04-20 19:05:00,
2013-04-20 12:10:00,76.1,44.8,29.97,North,0,0.0,0.0,33,0.00,,,0.00,WUHU216HW,2013-04-20 19:10:00,
2013-04-20 12:15:00,76.5,45.2,29.97,North,0,0.0,0.0,33,0.00,,,0.00,WUHU216HW,2013-04-20 19:15:00,
2013-04-20 12:20:00,76.7,45.4,29.97,North,0,0.0,0.0,33,0.00,,,0.00,WUHU216HW,2013-04-20 19:20:00,
2013-04-20 12:25:00,77.0,45.6,29.96,North,0,0.0,0.0,33,0.00,,,0.00,WUHU216HW,2013-04-20 19:25:00,
2013-04-20 12:30:00,77.4,45.2,29.96,North,0,0.0,0.0,32,0.00,,,0.00,WUHU216HW,2013-04-20 19:30:00,
2013-04-20 12:35:00,77.6,45.4,29.96,North,0,0.0,0.0,32,0.00,,,0.00,WUHU216HW,2013-04-20 19:35:00,
2013-04-20 12:40:00,77.8,46.3,29.96,North,0,0.0,0.0,33,0.00,,,0.00,WUHU216HW,2013-04-20 19:40:00,
2013-04-20 12:46:00,78.1,45.8,29.95,North,0,0.0,0.0,32,0.00,,,0.00,WUHU216HW,2013-04-20 19:46:00,
2013-04-20 12:51:00,78.5,45.3,29.95,North,0,0.0,0.0,31,0.00,,,0.00,WUHU216HW,2013-04-20 19:51:00,
2013-04-20 12:56:00,78.8,44.8,29.95,North,0,0.0,0.0,30,0.00,,,0.00,WUHU216HW,2013-04-20 19:56:00,
2013-04-20 13:01:00,79.4,45.3,29.95,North,0,0.0,0.0,30,0.00,,,0.00,WUHU216HW,2013-04-20 20:01:00,
2013-04-20 13:06:00,79.9,45.8,29.95,North,0,0.0,0.0,30,0.00,,,0.00,WUHU216HW,2013-04-20 20:06:00,
2013-04-20 13:11:00,80.3,45.1,29.95,North,0,0.0,0.0,29,0.00,,,0.00,WUHU216HW,2013-04-20 20:11:00,
2013-04-20 13:16:00,80.5,45.3,29.95,North,0,0.0,0.0,29,0.00,,,0.00,WUHU216HW,2013-04-20 20:16:00,
2013-04-20 13:21:00,80.6,45.4,29.94,North,0,0.0,0.0,29,0.00,,,0.00,WUHU216HW,2013-04-20 20:21:00,
2013-04-20 13:26:00,81.0,45.7,29.94,North,0,0.0,0.0,29,0.00,,,0.00,WUHU216HW,2013-04-20 20:26:00,
2013-04-20 13:31:00,81.2,45.8,29.94,North,0,0.0,0.0,29,0.00,,,0.00,WUHU216HW,2013-04-20 20:31:00,
2013-04-20 13:36:00,81.7,43.1,29.94,North,0,0.0,0.0,26,0.00,,,0.00,WUHU216HW,2013-04-20 20:36:00,
2013-04-20 13:41:00,82.1,45.6,29.93,North,0,0.0,0.0,28,0.00,,,0.00,WUHU216HW,2013-04-20 20:41:00,
2013-04-20 13:47:00,82.4,45.8,29.93,North,0,0.0,0.0,28,0.00,,,0.00,WUHU216HW,2013-04-20 20:47:00,
2013-04-20 13:52:00,82.8,44.0,29.93,North,0,0.0,0.0,26,0.00,,,0.00,WUHU216HW,2013-04-20 20:52:00,
2013-04-20 13:57:00,83.2,44.3,29.93,North,0,0.0,0.0,26,0.00,,,0.00,WUHU216HW,2013-04-20 20:57:00,
2013-04-20 14:02:00,83.3,43.5,29.93,North,0,0.0,0.0,25,0.00,,,0.00,WUHU216HW,2013-04-20 21:02:00,
2013-04-20 14:07:00,83.5,42.5,29.93,North,0,0.0,0.0,24,0.00,,,0.00,WUHU216HW,2013-04-20 21:07:00,
2013-04-20 14:12:00,83.9,42.9,29.93,North,0,0.0,0.0,24,0.00,,,0.00,WUHU216HW,2013-04-20 21:12:00,
2013-04-20 14:17:00,84.1,43.0,29.93,North,0,0.0,0.0,24,0.00,,,0.00,WUHU216HW,2013-04-20 21:17:00,
2013-04-20 14:22:00,84.6,42.4,29.92,North,0,0.0,0.0,23,0.00,,,0.00,WUHU216HW,2013-04-20 21:22:00,
2013-04-20 14:27:00,84.8,41.5,29.92,North,0,0.0,0.0,22,0.00,,,0.00,WUHU216HW,2013-04-20 21:27:00,
2013-04-20 14:32:00,85.0,42.7,29.92,North,0,0.0,0.0,23,0.00,,,0.00,WUHU216HW,2013-04-20 21:32:00,
2013-04-20 14:37:00,85.3,42.9,29.91,North,0,0.0,0.0,23,0.00,,,0.00,WUHU216HW,2013-04-20 21:37:00,
2013-04-20 14:42:00,85.5,43.1,29.91,North,0,0.0,0.0,23,0.00,,,0.00,WUHU216HW,2013-04-20 21:42:00,
2013-04-20 14:47:00,86.0,42.5,29.91,North,0,0.0,0.0,22,0.00,,,0.00,WUHU216HW,2013-04-20 21:47:00,
2013-04-20 14:52:00,86.2,42.7,29.91,North,0,0.0,0.0,22,0.00,,,0.00,WUHU216HW,2013-04-20 21:52:00,
2013-04-20 14:57:00,86.2,42.7,29.91,North,0,0.0,0.0,22,0.00,,,0.00,WUHU216HW,2013-04-20 21:57:00,
2013-04-20 15:03:00,86.6,41.9,29.91,North,0,0.0,0.0,21,0.00,,,0.00,WUHU216HW,2013-04-20 22:03:00,
2013-04-20 15:08:00,86.6,41.9,29.91,North,0,0.0,0.0,21,0.00,,,0.00,WUHU216HW,2013-04-20 22:08:00,
2013-04-20 15:13:00,86.8,42.0,29.91,North,0,0.0,0.0,21,0.00,,,0.00,WUHU216HW,2013-04-20 22:13:00,
2013-04-20 15:18:00,86.9,39.4,29.91,North,0,0.0,0.0,19,0.00,,,0.00,WUHU216HW,2013-04-20 22:18:00,
2013-04-20 15:23:00,86.9,39.4,29.91,North,0,0.0,0.0,19,0.00,,,0.00,WUHU216HW,2013-04-20 22:23:00,
2013-04-20 15:28:00,86.9,36.0,29.90,North,0,0.0,0.0,17,0.00,,,0.00,WUHU216HW,2013-04-20 22:28:00,
2013-04-20 15:33:00,87.1,37.9,29.90,North,0,0.0,0.0,18,0.00,,,0.00,WUHU216HW,2013-04-20 22:33:00,
2013-04-20 15:38:00,87.3,38.0,29.90,North,0,0.0,0.0,18,0.00,,,0.00,WUHU216HW,2013-04-20 22:38:00,
2013-04-20 15:43:00,87.5,39.9,29.90,North,0,0.0,0.0,19,0.00,,,0.00,WUHU216HW,2013-04-20 22:43:00,
2013-04-20 15:48:00,87.7,40.1,29.90,North,0,0.0,0.0,19,0.00,,,0.00,WUHU216HW,2013-04-20 22:48:00,
2013-04-20 15:53:00,87.7,40.1,29.89,North,0,0.0,0.0,19,0.00,,,0.00,WUHU216HW,2013-04-20 22:53:00,
2013-04-20 15:58:00,87.8,40.2,29.89,North,0,0.0,0.0,19,0.00,,,0.00,WUHU216HW,2013-04-20 22:58:00,
2013-04-20 16:04:00,88.0,40.3,29.89,North,0,0.0,0.0,19,0.00,,,0.00,WUHU216HW,2013-04-20 23:04:00,
2013-04-20 16:09:00,87.8,38.5,29.89,North,0,0.0,0.0,18,0.00,,,0.00,WUHU216HW,2013-04-20 23:09:00,
2013-04-20 16:14:00,87.5,38.2,29.89,North,0,0.0,0.0,18,0.00,,,0.00,WUHU216HW,2013-04-20 23:14:00,
2013-04-20 16:19:00,87.3,36.3,29.89,North,0,0.0,0.0,17,0.00,,,0.00,WUHU216HW,2013-04-20 23:19:00,
2013-04-20 16:24:00,87.1,37.9,29.89,North,0,0.0,0.0,18,0.00,,,0.00,WUHU216HW,2013-04-20 23:24:00,
2013-04-20 16:29:00,86.9,37.7,29.89,North,0,0.0,0.0,18,0.00,,,0.00,WUHU216HW,2013-04-20 23:29:00,
2013-04-20 16:34:00,86.9,37.7,29.89,North,0,0.0,0.0,18,0.00,,,0.00,WUHU216HW,2013-04-20 23:34:00,
2013-04-20 16:39:00,86.8,37.5,29.88,North,0,0.0,0.0,18,0.00,,,0.00,WUHU216HW,2013-04-20 23:39:00,
2013-04-20 16:44:00,86.8,37.5,29.89,North,0,0.0,0.0,18,0.00,,,0.00,WUHU216HW,2013-04-20 23:44:00,
2013-04-20 16:49:00,86.8,35.8,29.88,North,0,0.0,0.0,17,0.00,,,0.00,WUHU216HW,2013-04-20 23:49:00,
2013-04-20 16:54:00,86.4,33.8,29.88,North,0,0.0,0.0,16,0.00,,,0.00,WUHU216HW,2013-04-20 23:54:00,
2013-04-20 16:59:00,86.2,35.4,29.88,North,0,0.0,0.0,17,0.00,,,0.00,WUHU216HW,2013-04-20 23:59:00,
2013-04-20 17:04:00,85.9,35.0,29.88,North,0,0.0,0.0,17,0.00,,,0.00,WUHU216HW,2013-04-21 00:04:00,
2013-04-20 17:09:00,85.5,34.7,29.88,North,0,0.0,0.0,17,0.00,,,0.00,WUHU216HW,2013-04-21 00:09:00,
2013-04-20 17:14:00,85.3,34.7,29.88,North,0,0.0,0.0,17,0.00,,,0.00,WUHU216HW,2013-04-21 00:14:00,
2013-04-20 17:20:00,85.3,36.4,29.88,North,0,0.0,0.0,18,0.00,,,0.00,WUHU216HW,2013-04-21 00:20:00,
2013-04-20 17:25:00,85.1,36.2,29.88,North,0,0.0,0.0,18,0.00,,,0.00,WUHU216HW,2013-04-21 00:25:00,
2013-04-20 17:30:00,85.0,36.0,29.88,North,0,0.0,0.0,18,0.00,,,0.00,WUHU216HW,2013-04-21 00:30:00,
2013-04-20 17:35:00,85.0,36.0,29.88,North,0,0.0,0.0,18,0.00,,,0.00,WUHU216HW,2013-04-21 00:35:00,
2013-04-20 17:40:00,84.6,35.7,29.88,North,0,0.0,0.0,18,0.00,,,0.00,WUHU216HW,2013-04-21 00:40:00,
2013-04-20 17:45:00,84.6,35.7,29.88,North,0,0.0,0.0,18,0.00,,,0.00,WUHU216HW,2013-04-21 00:45:00,
2013-04-20 17:50:00,84.4,35.7,29.88,North,0,0.0,0.0,18,0.00,,,0.00,WUHU216HW,2013-04-21 00:50:00,
2013-04-20 17:55:00,84.2,35.5,29.87,North,0,0.0,0.0,18,0.00,,,0.00,WUHU216HW,2013-04-21 00:55:00,
2013-04-20 18:00:00,84.1,35.3,29.87,North,0,0.0,0.0,18,0.00,,,0.00,WUHU216HW,2013-04-21 01:00:00,
2013-04-20 18:05:00,83.9,35.2,29.87,North,0,0.0,0.0,18,0.00,,,0.00,WUHU216HW,2013-04-21 01:05:00,
2013-04-20 18:10:00,83.7,35.0,29.87,North,0,0.0,0.0,18,0.00,,,0.00,WUHU216HW,2013-04-21 01:10:00,
2013-04-20 18:15:00,83.5,34.9,29.87,North,0,0.0,0.0,18,0.00,,,0.00,WUHU216HW,2013-04-21 01:15:00,
2013-04-20 18:20:00,83.3,34.7,29.87,North,0,0.0,0.0,18,0.00,,,0.00,WUHU216HW,2013-04-21 01:20:00,
2013-04-20 18:26:00,83.2,34.7,29.87,North,0,0.0,0.0,18,0.00,,,0.00,WUHU216HW,2013-04-21 01:26:00,
2013-04-20 18:31:00,83.0,32.8,29.87,North,0,0.0,0.0,17,0.00,,,0.00,WUHU216HW,2013-04-21 01:31:00,
2013-04-20 18:36:00,82.8,34.4,29.87,North,0,0.0,0.0,18,0.00,,,0.00,WUHU216HW,2013-04-21 01:36:00,
2013-04-20 18:41:00,82.6,34.2,29.87,North,0,0.0,0.0,18,0.00,,,0.00,WUHU216HW,2013-04-21 01:41:00,
2013-04-20 18:46:00,82.4,35.7,29.87,North,0,0.0,0.0,19,0.00,,,0.00,WUHU216HW,2013-04-21 01:46:00,
2013-04-20 18:51:00,82.1,35.5,29.87,North,0,0.0,0.0,19,0.00,,,0.00,WUHU216HW,2013-04-21 01:51:00,
2013-04-20 18:56:00,81.7,35.2,29.87,North,0,0.0,0.0,19,0.00,,,0.00,WUHU216HW,2013-04-21 01:56:00,
2013-04-20 19:01:00,81.5,35.0,29.87,North,0,0.0,0.0,19,0.00,,,0.00,WUHU216HW,2013-04-21 02:01:00,
2013-04-20 19:06:00,81.4,34.9,29.87,North,0,0.0,0.0,19,0.00,,,0.00,WUHU216HW,2013-04-21 02:06:00,
2013-04-20 19:11:00,81.0,34.6,29.87,North,0,0.0,0.0,19,0.00,,,0.00,WUHU216HW,2013-04-21 02:11:00,
2013-04-20 19:16:00,80.6,37.1,29.87,North,0,0.0,0.0,21,0.00,,,0.00,WUHU216HW,2013-04-21 02:16:00,
2013-04-20 19:21:00,80.3,36.7,29.87,North,0,0.0,0.0,21,0.00,,,0.00,WUHU216HW,2013-04-21 02:21:00,
2013-04-20 19:27:00,79.7,37.3,29.88,North,0,0.0,0.0,22,0.00,,,0.00,WUHU216HW,2013-04-21 02:27:00,
2013-04-20 19:32:00,79.2,36.8,29.88,North,0,0.0,0.0,22,0.00,,,0.00,WUHU216HW,2013-04-21 02:32:00,
2013-04-20 19:37:00,78.8,40.7,29.88,North,0,0.0,0.0,26,0.00,,,0.00,WUHU216HW,2013-04-21 02:37:00,
2013-04-20 19:42:00,78.1,43.2,29.88,North,0,0.0,0.0,29,0.00,,,0.00,WUHU216HW,2013-04-21 02:42:00,
2013-04-20 19:47:00,77.4,45.2,29.88,North,0,0.0,0.0,32,0.00,,,0.00,WUHU216HW,2013-04-21 02:47:00,
2013-04-20 19:52:00,76.7,45.4,29.89,North,0,0.0,0.0,33,0.00,,,0.00,WUHU216HW,2013-04-21 02:52:00,
2013-04-20 19:57:00,76.0,45.5,29.89,North,0,0.0,0.0,34,0.00,,,0.00,WUHU216HW,2013-04-21 02:57:00,
2013-04-20 20:02:00,75.2,45.5,29.89,North,0,0.0,0.0,35,0.00,,,0.00,WUHU216HW,2013-04-21 03:02:00,
2013-04-20 20:07:00,74.7,45.1,29.89,North,0,0.0,0.0,35,0.00,,,0.00,WUHU216HW,2013-04-21 03:07:00,
2013-04-20 20:12:00,74.3,44.7,29.89,North,0,0.0,0.0,35,0.00,,,0.00,WUHU216HW,2013-04-21 03:12:00,
2013-04-20 20:17:00,73.8,45.0,29.89,North,0,0.0,0.0,36,0.00,,,0.00,WUHU216HW,2013-04-21 03:17:00,
2013-04-20 20:22:00,73.3,45.3,29.89,North,0,0.0,0.0,37,0.00,,,0.00,WUHU216HW,2013-04-21 03:22:00,
2013-04-20 20:27:00,73.1,45.1,29.89,North,0,0.0,0.0,37,0.00,,,0.00,WUHU216HW,2013-04-21 03:27:00,
2013-04-20 20:32:00,72.7,44.8,29.90,North,0,0.0,0.0,37,0.00,,,0.00,WUHU216HW,2013-04-21 03:32:00,
2013-04-20 20:37:00,72.4,45.3,29.90,North,0,0.0,0.0,38,0.00,,,0.00,WUHU216HW,2013-04-21 03:37:00,
2013-04-20 20:43:00,72.0,44.9,29.90,North,0,0.0,0.0,38,0.00,,,0.00,WUHU216HW,2013-04-21 03:43:00,
2013-04-20 20:48:00,71.5,45.2,29.90,North,0,0.0,0.0,39,0.00,,,0.00,WUHU216HW,2013-04-21 03:48:00,
2013-04-20 20:53:00,71.1,44.8,29.90,North,0,0.0,0.0,39,0.00,,,0.00,WUHU216HW,2013-04-21 03:53:00,
2013-04-20 20:58:00,70.7,44.6,29.90,North,0,0.0,0.0,39,0.00,,,0.00,WUHU216HW,2013-04-21 03:58:00,
2013-04-20 21:01:00,70.6,44.4,29.91,North,0,0.0,0.0,39,0.00,,,0.00,WUHU216HW,2013-04-21 04:01:00,
2013-04-20 21:02:00,70.4,44.2,29.90,North,0,0.0,0.0,39,0.00,,,0.00,WUHU216HW,2013-04-21 04:02:00,
2013-04-20 21:03:00,70.4,44.9,29.91,North,0,0.0,0.0,40,0.00,,,0.00,WUHU216HW,2013-04-21 04:03:00,
2013-04-20 21:08:00,70.0,44.7,29.91,North,0,0.0,0.0,40,0.00,,,0.00,WUHU216HW,2013-04-21 04:08:00,
2013-04-20 21:13:00,69.7,44.3,29.91,North,0,0.0,0.0,40,0.00,,,0.00,WUHU216HW,2013-04-21 04:13:00,
2013-04-20 21:18:00,69.3,44.0,29.91,North,0,0.0,0.0,40,0.00,,,0.00,WUHU216HW,2013-04-21 04:18:00,
2013-04-20 21:23:00,68.9,44.3,29.92,North,0,0.0,0.0,41,0.00,,,0.00,WUHU216HW,2013-04-21 04:23:00,
2013-04-20 21:28:00,68.6,43.9,29.92,North,0,0.0,0.0,41,0.00,,,0.00,WUHU216HW,2013-04-21 04:28:00,
2013-04-20 21:33:00,68.2,43.6,29.92,North,0,0.0,0.0,41,0.00,,,0.00,WUHU216HW,2013-04-21 04:33:00,
2013-04-20 21:38:00,67.9,42.7,29.92,North,0,0.0,0.0,40,0.00,,,0.00,WUHU216HW,2013-04-21 04:38:00,
2013-04-20 21:44:00,67.5,42.9,29.92,North,0,0.0,0.0,41,0.00,,,0.00,WUHU216HW,2013-04-21 04:44:00,
2013-04-20 21:49:00,67.1,42.7,29.92,North,0,0.0,0.0,41,0.00,,,0.00,WUHU216HW,2013-04-21 04:49:00,
2013-04-20 21:54:00,66.8,42.3,29.92,North,0,0.0,0.0,41,0.00,,,0.00,WUHU216HW,2013-04-21 04:54:00,
2013-04-20 21:59:00,66.4,42.6,29.92,North,0,0.0,0.0,42,0.00,,,0.00,WUHU216HW,2013-04-21 04:59:00,
2013-04-20 22:04:00,66.1,42.2,29.92,North,0,0.0,0.0,42,0.00,,,0.00,WUHU216HW,2013-04-21 05:04:00,
2013-04-20 22:09:00,65.9,42.1,29.92,North,0,0.0,0.0,42,0.00,,,0.00,WUHU216HW,2013-04-21 05:09:00,
2013-04-20 22:14:00,65.5,42.3,29.92,North,0,0.0,0.0,43,0.00,,,0.00,WUHU216HW,2013-04-21 05:14:00,
2013-04-20 22:19:00,65.3,41.6,29.91,North,0,0.0,0.0,42,0.00,,,0.00,WUHU216HW,2013-04-21 05:19:00,
2013-04-20 22:24:00,65.2,41.4,29.91,North,0,0.0,0.0,42,0.00,,,0.00,WUHU216HW,2013-04-21 05:24:00,
2013-04-20 22:29:00,65.2,42.0,29.91,North,0,0.0,0.0,43,0.00,,,0.00,WUHU216HW,2013-04-21 05:29:00,
2013-04-20 22:34:00,64.8,41.7,29.92,North,0,0.0,0.0,43,0.00,,,0.00,WUHU216HW,2013-04-21 05:34:00,
2013-04-20 22:39:00,64.6,41.5,29.92,North,0,0.0,0.0,43,0.00,,,0.00,WUHU216HW,2013-04-21 05:39:00,
2013-04-20 22:44:00,64.4,41.3,29.92,North,0,0.0,0.0,43,0.00,,,0.00,WUHU216HW,2013-04-21 05:44:00,
2013-04-20 22:50:00,64.1,41.6,29.91,North,0,0.0,0.0,44,0.00,,,0.00,WUHU216HW,2013-04-21 05:50:00,
2013-04-20 22:55:00,63.7,41.9,29.91,North,0,0.0,0.0,45,0.00,,,0.00,WUHU216HW,2013-04-21 05:55:00,
2013-04-20 23:00:00,63.5,41.7,29.92,North,0,0.0,0.0,45,0.00,,,0.00,WUHU216HW,2013-04-21 06:00:00,
2013-04-20 23:05:00,63.4,41.5,29.92,North,0,0.0,0.0,45,0.00,,,0.00,WUHU216HW,2013-04-21 06:05:00,
2013-04-20 23:10:00,63.2,41.3,29.91,North,0,0.0,0.0,45,0.00,,,0.00,WUHU216HW,2013-04-21 06:10:00,
2013-04-20 23:15:00,63.2,42.0,29.91,North,0,0.0,0.0,46,0.00,,,0.00,WUHU216HW,2013-04-21 06:15:00,
2013-04-20 23:20:00,63.0,41.8,29.91,North,0,0.0,0.0,46,0.00,,,0.00,WUHU216HW,2013-04-21 06:20:00,
2013-04-20 23:25:00,62.8,42.2,29.91,North,0,0.0,0.0,47,0.00,,,0.00,WUHU216HW,2013-04-21 06:25:00,
2013-04-20 23:30:00,62.6,42.0,29.91,North,0,0.0,0.0,47,0.00,,,0.00,WUHU216HW,2013-04-21 06:30:00,
2013-04-20 23:35:00,62.5,42.4,29.91,North,0,0.0,0.0,48,0.00,,,0.00,WUHU216HW,2013-04-21 06:35:00,
2013-04-20 23:40:00,62.3,42.3,29.91,North,0,0.0,0.0,48,0.00,,,0.00,WUHU216HW,2013-04-21 06:40:00,
2013-04-20 23:45:00,61.9,42.5,29.92,North,0,0.0,0.0,49,0.00,,,0.00,WUHU216HW,2013-04-21 06:45:00,
2013-04-20 23:50:00,61.9,42.5,29.91,North,0,0.0,0.0,49,0.00,,,0.00,WUHU216HW,2013-04-21 06:50:00,
2013-04-20 23:55:00,61.6,42.2,29.92,North,0,0.0,0.0,49,0.00,,,0.00,WUHU216HW,2013-04-21 06:55:00,